Погода в Жезказгане

Погода в Жезказгане : погода сейчас, прогноз погоды и архив. Всё, что Вы хотите узнать о погоде в Жезказгане!

Хотите узнать прогноз погоды в Жезказгане? Тогда Вам сюда: Погода в Жезказгане

Поиск расширенной информации на нашем сайте:

Полезная информация:

Другие новости

Новости СМИ2

Главная страница сайта

Новости сайта

03.07.2017

Напоминаем, что на нашем специализированном сайте Метеоцентр.Азия вы можете получить высокодетализированные автоматические прогнозы погоды по пунктам России, СНГ и мира в авиационном формате (включающие направление и скорость ветра, видимость, явления погоды, количество и форму облачности, нижнюю и верхнюю границу облачности).

Рекомендуем:

Погода в Жезказгане - сегодня

Время (UTC), дата Ветер
(°,м/с) 
Видим.   Явления Облачность Т
(°С)
Тd
(°С)
f(%) Тe
(°С)
Pmin
(гПа)
dP
(гПа)
Po
(мм)
O2
(г/м3)
Тmin Tmax R s Состояние
почвы
00 16.07.19 090 (В) 20000 м    ясно 
+18.3 +4 39 +20  1003.6  0.4  723  272           
03 16.07.19 090 (В) 20000 м    ясно 
+27.4 +5.9 25 +27  1002.4  723  264           
06 16.07.19 тихо ()   20000 м    ясно 
+37.5 +10.2 19 +40  1000.8  -0.2  723  254  +17.2         
09 16.07.19 150 (ЮВ) 20000 м    1/1 1000 м 
[Cu hum]
+40.3 +10.9 17 +43  999.7  -0.7  722  252           
12 16.07.19 350 (С) 20000 м    1/1 1000 м 
[Cu hum]
+39.4 +9.8 17 +41  999.5  -0.3  722  253           
15 16.07.19 010 (С) 20000 м    ясно 
+35.5 +10.1 21 +38  1001  723  256    +41       
18 16.07.19 360 (С) 20000 м    ясно 
+28.9 +8.5 28 +29  1003.2  1.3  724  262    +41       
21 16.07.19 020 (С) 20000 м    ясно 
+25.8 +8 32 +26  1003.8  0.2  724  265           
00 17.07.19 010 (С) 20000 м    ясно 
+23.3 +9.3 41 +24  1005  0.8  725  267           
03 17.07.19 030 (СВ) 20000 м    ясно 
+25.6 +11.8 42 +30  1006  1.3  726  265           
06 17.07.19 040 (СВ) 20000 м    ясно 
+31.9 +10.3 26 +34  1004.8  -0.4  725  260  +23         
09 17.07.19 040 (СВ) 20000 м    ясно 
+35.1 +8.7 20 +35  1003.8  -0.6  725  257           
12 17.07.19 030 (СВ) 20000 м    ясно 
+35.5 +9.2 20 +36  1003.7  -0.1  725  257           
15 17.07.19 040 (СВ) 20000 м    ясно 
+32.9 +7.8 21 +33  1004.4  0.4  725  259    +36.3       
18 17.07.19 020 (С) 20000 м    ясно 
+27.9 +4.2 22 +28  1006.3  1.2  726  265    +36.3       
21 17.07.19 030 (СВ) 20000 м    ясно 
+24.8 +8 34 +25  1006.8  0.1  726  267           
00 18.07.19 030 (СВ) 20000 м    ясно 
+22.2 +8.4 41 +22  1007.5  0.4  726  269           
03 18.07.19 040 (СВ) 20000 м    ясно 
+26.8 +9.8 34 +28  1007.2  0.3  727  265           
06 18.07.19 050 (СВ) 20000 м    ясно 
+31 +7.8 24 +31  1006.6  -0.1  726  262  +21.9         
09 18.07.19 050 (СВ) 20000 м    ясно 
+34.9 +8.9 20 +35  1005.5  0.6  726  258           
12 18.07.19 030 (СВ) 20000 м    ясно 
+35.8 +7.7 18 +36  1004.8  -0.5  726  257           
15 18.07.19 030 (СВ) 20000 м    ясно 
+32.7 +7.5 21 +33  1006.1  0.8  726  260    +36.2       
18 18.07.19 030 (СВ) 20000 м    ясно 
+27.8 +5 23 +28  1007.3  0.5  727  265    +36.2       
21 18.07.19 040 (СВ) 20000 м    ясно 
+24.3 +4.9 29 +24  1008  0.3  727  268           
00 19.07.19 040 (СВ) 20000 м    ясно 
+22.4 +6.4 35 +22  1008.5  0.3  727  270           
Время (UTC), дата Ветер
(°,м/с) 
Видим.   Явления Облачность Т
(°С)
Тd
(°С)
f(%) Тe
(°С)
Pmin
(гПа)
dP
(гПа)
Po
(мм)
O2
(г/м3)
Тmin Tmax R s Состояние
почвы

Для получения пояснительной информации подведите курсор к названию столбца.

ПОГОДА в Жезказгане - архив

Всё, что Вы хотите узнать о погоде в Жезказгане - удобно и подробно!

Выберите нужную дату (начиная с 1 января 2018* года) и нажмите кнопку "Найти".
Будут отображены архивные сводки погоды по пункту Жезказган, начиная с указанной даты.


Отображать данные в формате CSV (для использования в таблицах Excel)


Внимание! Наш архив погоды предназначен исключительно для личного некоммерческого использования в познавательных целях. Если Вам необходимы официальные справки о состоянии погоды (для производственных, юридических, коммерческих и т.п. целей), обращайтесь в органы Росгидромета.

*Примечание: данная дата относится к архиву по метеостанциям СССР (Россия, СНГ, Балтия).
Архив по метеостанциям Зарубежной Европы и Азии (кроме Китая) хранится 10 дней, по другим регионам земного шара (Китай, Африка, Америка, Австралия, Океания) - 1 день.

Жезказган - район местоположения метеостанции


Название, широта, долгота, высота метеостанции:
Жезказган 47.8°ш. 67.7°д. 346 м над ур. моря [Казахстан]

Дополнительная информация

В oтличие oт бoльшинства пoгoдных сайтoв мы публикуем пoдрoбную метеoинфoрмацию в детальнoм прoфессиoнальнoм фoрмате.

Характеристики температуры и влажнoсти вoздуха измеряются на высoте 2 м в тени вдали oт зданий и деревьев.
Скoрoсть ветра измеряется на высoте 10 м (на урoвне рoста челoвека скoрoсть ветра ниже в 1.5-2 раза). Если метеoстанция нахoдится в гoрoде или в лесу, тo скoрoсть ветра занижена на 2-4 м/с пo сравнению с oткрытым местoм. Скoрoсть ветра над акватoриями крупных рек и oзёр, а также на вершинах хoлмoв на 2-5 м/с выше, чем в oбычных услoвиях.
Атмoсфернoе давление в разных тoчках местнoсти мoжет значительнo oтличаться oт давления на метеoстанции, в зависимoсти oт услoвий рельефа (при пoдъёме на 10 м давление пoнижается примернo на 1 мм рт.ст.).